Regional Weather Roundup
Issued by NWS Sterling, VA

Home | Current Version | Previous Version | Graphics & Text | Print | Product List | Glossary On
Versions: 1 2 3 4 5 6 7 8 9 10 11 12 13 14 15 16 17 18 19 20 21 22 23 24 25 26 27 28
000
ASUS41 KLWX 241111
RWRLWX

REGIONAL WEATHER ROUNDUP
NATIONAL WEATHER SERVICE BALTIMORE MD/WASHINGTON DC
700 AM EDT WED AUG 24 2016

Note: "FAIR" indicates few or no clouds below 12,000 feet
with no significant weather and/or obstructions to visibility.
 TC=TEMPERATURE CELSIUS

 * =Non NWS site. Station does not report precipitation (e.g. rain,
    snow, etc.), thunder, or fog.

DCZ001-MDZ009-015-VAZ040>042-051-053>054-241200-
WASHINGTON METRO

CITY           SKY/WX    TMP DP  RH WIND       PRES   REMARKS
WASHINGTON NAT PTCLDY    68  62  81 SW3       30.31R
DULLES         MOCLDY    64  59  83 CALM      30.31R
ANDREWS AFB    CLEAR     64  60  87 S5        30.30R
FT BELVOIR     CLEAR     61  60  96 CALM      30.31R
QUANTICO       PTCLDY    65  61  87 NW3       30.32R
COLLEGE PARK*  CLEAR     59  59 100 CALM      30.31R
LEESBURG*      PTCLDY    63  63 100 CALM      30.32R
MANASSAS*      CLEAR     61  61 100 CALM      30.31R
GAITHERSBURG*  CLEAR     61  55  82 CALM      30.35R

$$

MDZ006>007-011-014-241200-
BALTIMORE METRO

CITY           SKY/WX    TMP DP  RH WIND       PRES   REMARKS
BWI AIRPORT    PTCLDY    63  60  90 CALM      30.30R
MD SCIENCE CTR   N/A     69  58  67 MISG      30.31R
MARTIN STATE   PTCLDY    64  64 100 CALM      30.31R
ANNAPOLIS      CLEAR     69  62  78 CALM      30.30R
FORT MEADE*    PTCLDY    59  57  94 CALM      30.33R

$$

MDZ012-015-019>023-241200-
MARYLAND EASTERN SHORE

CITY           SKY/WX    TMP DP  RH WIND       PRES   REMARKS
OCEAN CITY     CLEAR     60  58  92 CALM      30.31R
SALISBURY      CLEAR     59  57  93 CALM      30.31R
BAY BRIDGE AP* CLEAR     72  64  78 W5        30.30S
CAMBRIDGE*     CLEAR     59  57  94 CALM      30.30R
EASTON*        CLEAR     63  63 100 CALM      30.34R

$$

MDZ017>025-241200-
SOUTHERN MARYLAND

CITY           SKY/WX    TMP DP  RH WIND       PRES   REMARKS
PATUXENT RIVER PTCLDY    64  61  90 W5        30.30R
ST INIGOES     CLEAR     63  62  97 CALM      30.30R
LEONARDTOWN*   MOCLDY    63  61  94 CALM      30.32S

$$

MDZ003>005-241200-
NORTH CENTRAL MARYLAND

CITY           SKY/WX    TMP DP  RH WIND       PRES   REMARKS
FREDERICK*     CLEAR     61  61 100 CALM      30.33R
HAGERSTOWN APT CLEAR     65  58  78 CALM      30.30R

$$

MDZ501>502-241200-
WESTERN MARYLAND

CITY           SKY/WX    TMP DP  RH WIND       PRES   REMARKS
OAKLAND*       CLEAR     59  57  94 S6        30.36R
CUMBERLAND*    CLEAR     61  61 100 CALM      30.35R

$$

VAZ025>031-241200-
SHENANDOAH VALLEY

CITY           SKY/WX    TMP DP  RH WIND       PRES   REMARKS
WINCHESTER*    CLEAR     63  61  94 W5        30.30R
FRONT ROYAL*   FAIR      61  61 100 CALM      30.30R
LURAY*         FAIR     N/A N/A N/A CALM      30.32R HAZE
NEW MARKET*    FAIR     N/A N/A N/A CALM      30.31R
STAUNTON*      PTCLDY    57  57  99 CALM      30.35R
WAYNESBORO*    FAIR      60  59  96 CALM      30.34R

$$

WVZ021-048>050-054>055-241200-
EASTERN WEST VIRGINIA PANHANDLE

CITY           SKY/WX    TMP DP  RH WIND       PRES   REMARKS
MARTINSBURG    CLEAR     60  59  96 CALM      30.29R FOG
PETERSBURG*    CLEAR     57  57  99 CALM      30.31S FOG

$$

VAZ036>039-050-241200-
CENTRAL FOOTHILLS

CITY           SKY/WX    TMP DP  RH WIND       PRES   REMARKS
CHARLOTTESVILL CLEAR     65  62  90 W3        30.32R
CULPEPER*      CLOUDY    62  62 100 CALM      30.32R
ORANGE*          N/A     63  63 100 CALM      30.33R
GORDONSVILLE*  CLOUDY    63  63 100 CALM      30.31R
WARRENTON*     FAIR      62  58  85 CALM      30.31R

$$

VAZ055>057-241200-
NORTH AND CENTRAL PIEDMONT

CITY           SKY/WX    TMP DP  RH WIND       PRES   REMARKS
FREDERICKSBRG* PTCLDY    63  63 100 CALM      30.31R
STAFFORD*      CLEAR     59  58  97 CALM      30.35S

$$

NCZ024-NYZ072-PAZ021-071-VAZ022-071-241200-
OTHER REGIONAL OBSERVATIONS

CITY           SKY/WX    TMP DP  RH WIND       PRES   REMARKS
NEW YORK CITY  CLEAR     68  58  70 W5        30.31R
PHILADELPHIA   PTCLDY    68  61  78 W6        30.30R
PITTSBURGH     MOCLDY    61  57  87 CALM      30.25R
ROANOKE        PTCLDY    64  62  93 CALM      30.35R
RICHMOND       MOCLDY    63  59  87 CALM      30.31R
RALEIGH        PTCLDY    65  62  90 CALM      30.30R

$$

ANZ530>537-241200-
MARINE OBSERVATIONS

STATION/POSITION TIME  TEMP    WIND        PRES
                       AIR SEA DIR/SP/G
                 (UTC) (F)     (DEG/KT/KT) (MB)
THOMAS PT LIGHT  1100   71 81  250/  9/ 10 1027.4R
BALT KEY BRIDGE  1042   70     260/  4/  5 1026.0R
COVE POINT       1042   71     280/  7/ 10 1026.6R
LEWISETTA        1048   69 81  280/  5/  6 1025.9R
SOLOMONS ISLAND  1042   72 83  300/  3/  4   N/A
PINEY POINT      1048          290/  7/  9   N/A

$$





USA.gov is the U.S. government's official web portal to all federal, state and local government web resources and services.